Погода в Таптыкове

Россия / Республика Башкортостан     54°36′19″N   55°47′13″E
темп.,
°C
ветер,
м/с
пор.,
м/с
влажн.,
%
обл.,
%
осадки,
мм/ч
давл.,
гПа
погр.,
м
24 июля, сб
сб2423:00+17в1167100 0.0 100411
02:00+16ссз1172100 0.0 100411
05:00+14сз11800 0.0 100510
08:00+19сз01611 0.0 1005233
11:00+24юз244128 0.0 10051775
14:00+26з452999 0.0 10052670
17:00+24зсз453360 0.0 10061556
20:00+22сз584428 0.0 1007466
25 июля, вс
вс2523:00+17сз22645 0.0 100919
02:00+13сз379340 0.1 1011154
05:00+12сз49945 0.1 1013203
08:00+14ссз57750 0.0 1015374
11:00+19ссз56496 0.0 10161722
14:00+22ссз66308 0.0 10172591
17:00+23ссз76244 0.0 10172647
20:00+21ссз57296 0.0 1018770
26 июля, пн
пн2623:00+13ссз38465 0.0 1021137
02:00+11с22595 0.0 102212
05:00+10ссз11655 0.0 102310
08:00+15зюз114489 0.0 1023213
11:00+20з363117 0.0 10231806
14:00+21сз572965 0.0 10222408
17:00+23сз562798 0.0 10212811
20:00+21сз3532100 0.0 1021278
27 июля, вт
вт2723:00+18зсз3742100 0.0 1020174
02:00+14з225589 0.0 102112
05:00+13зюз226298 0.0 102017
08:00+17зюз3750100 0.0 1020245
11:00+24зсз573220 0.0 10182528
14:00+24зсз6730100 0.0 10162522
17:00+25зсз693394 0.1 10152526
20:00+22сз5841100 0.3 10151278
28 июля, ср
ср2823:00+15сз33550 0.3 101634
02:00+13ссз226232 0.0 101710
05:00+12сз11651 0.0 101711
08:00+16с22535 0.0 1018246
11:00+21ссв23375 0.0 10171515
14:00+25ссз34265 0.0 10152265
17:00+26сз34225 0.0 10142693
20:00+24зсз35284 0.0 1013226